Find Starlink 32317

NORAD ID: 60918 Int'l Des: 2024-154 Owner: SPXS Country: US Constellation: starlink operational
LEOCIRCULAR

当前视图

正在加载3D地球...

About Starlink 32317

Starlink 32317 (NORAD 60918) is a starlink constellation satellite (v2 mini) launched Aug 31, 2024 by SPXS of US. It operates in LEO, CIRCULAR orbit with a mass of 730.00 kg.

即将过境

Passes for default location (London). Set your location on the main map for personalized predictions.

高度历史

Loading altitude history...

两行轨道根数

1 60918U 24154R 26228.37333681 .00000697 00000-0 31760-4 0 9997
2 60918 53.1604 262.1036 0000737 83.1664 276.9423 15.34395579110781
Epoch: Aug 16, 2026 • Age: 11 hours

当前状态

高度 467.8 km
远地点 / 近地点 N/A
速度 7.64 km/s
星下点 48.87°N, 50.14°E
发射日期 Aug 31, 2024
运行时间 1.9 years
类型 internet

技术详情

分类 Payload
质量 730.00 kg
干质量 700.00 kg
总质量 730.00 kg
长度 0.30 m
直径 4.10 m
跨度 29.00 m
形状 Box + pan
制造商 SPXS
平台类型 Starlink V2M
阶段状态 In Orbit
所有者/国家 SPXS/US

Most Searched